Tracking 22124 objects as of 23-Jan-2021
HD Live streaming from Space Station
objects crossing your sky now

LUCKY-7

Track LUCKY-7 now!
10-day predictions
LUCKY-7 is classified as:


NORAD ID: 44406
Int'l Code: 2019-038W
Perigee: 517.4 km
Apogee: 553.4 km
Inclination: 97.6 °
Period: 95.2 minutes
Semi major axis: 6906 km
RCS: Unknown
Launch date: July 5, 2019
Source: United States (US)
Launch site: VOSTOCHNY COSMODROME (VOSTO)

Uplink (MHz):
Downlink (MHz): 437.525
Beacon (MHz):
Mode: 4k8/9k6 FSK
Call sign:
Status: Active

aabbcc
Your satellite tracking list
Your tracking list is empty




NASA's NSSDC Master Catalog

Two Line Element Set (TLE):
1 44406U 19038W   21022.86613487  .00000716  00000-0  44507-4 0  9997
2 44406  97.5703 347.9065 0026042  90.0527 270.3688 15.12614610 85736
Source of the keplerian elements: AFSPC